Tracking 28126 objects as of 2-Oct-2023
HD Live streaming from Space Station
objects crossing your sky now

SATCOM 3

Track SATCOM 3 now!
SATCOM 3 is classified as:


NORAD ID: 11635
Int'l Code: 1979-101A
Perigee: 8,100.9 km
Apogee: 35,722.1 km
Inclination: 7.3 °
Period: 788.9 minutes
Semi major axis: 28282 km
RCS: 6.1128 m2 (large)
Launch date: December 7, 1979
Source: United States (US)
Launch site: AIR FORCE EASTERN TEST RANGE (AFETR)
Your satellite tracking list
Your tracking list is empty




NASA's NSSDC Master Catalog

Two Line Element Set (TLE):
1 11635U 79101A   23274.54989742 -.00000058  00000-0  00000+0 0  9993
2 11635   7.3438 184.0457 4883100 275.4787 254.9968  1.82526986205902
Source of the keplerian elements: AFSPC